{"data":{"norad_id":53654,"epoch":"2026-09-20T22:30:18.699552Z","epoch_age_seconds":43905,"freshness":"FRESH","line1":"1 53654U 22105G   26263.93771643  .00001454  00000+0  47363-4 0  9992","line2":"2 53654  97.2846 140.6620 0001280  87.6011 272.5378 15.33443316222805","mean_motion":15.33443316,"eccentricity":0.000128,"inclination_deg":97.2846,"raan_deg":140.662,"arg_perigee_deg":87.6011,"mean_anomaly_deg":272.5378,"bstar":4.7363e-5,"rev_number":22280,"period_min":93.906307782948,"perigee_km":464.67219317826,"apogee_km":466.42417658558,"semimajor_km":6843.6851848819,"source":"CELESTRAK","updated_at":"2026-09-21T09:00:32.950312Z"}}